Location: Spor
(46.2167°N, 11.0500°E)
Time: 07:51:45
(UTC+00:00)

Cosmos 1869 - Pass Details

Date: 07 June 2020
Orbit: 519 x 563 km, 82.5° (Epoch: 09 July)

Event Time Altitude Azimuth Distance (km) Brightness Sun altitude
Rises 01:24:48 0° 348° (NNW) 2,661 7.6 -15.0°
Reaches altitude 10° 01:26:58 10° 345° (NNW) 1,765 6.5 -14.8°
Maximum altitude 01:30:47 64° 265° (W) 580 3.2 -14.4°
Enters shadow 01:33:04 23° 188° (S) 1,145 4.4 -14.2°
